Location: Hokitika
(42.7170°S, 170.9670°E)
Time: 04:28:16
(UTC+13:00)

Meteor 2-13 Rocket - Pass Details

Date: 24 January 2019
Orbit: 935 x 959 km, 82.5° (Epoch: 18 February)

Event Time Altitude Azimuth Distance (km) Brightness Sun altitude
Exits shadow 22:27:55 - 357° (N) 3,536 7.1 -12.8°
Reaches altitude 10° 22:30:15 10° 357° (N) 2,649 6.4 -13.1°
Maximum altitude 22:36:18 83° 83° (E) 961 4.4 -14.0°
Drops below altitude 10° 22:42:29 10° 170° (S) 2,693 7.3 -14.8°
Sets 22:45:00 0° 170° (S) 3,648 8.0 -15.1°
